Weather reports worldwide

Advertisment
Valley, United Kingdom (3302): temperature & dewpoint: 16.10.2017 00:00:00 - 22.10.2017 00:00:00 (BST)Valley, United Kingdom (3302): temperature -20cm & temperature -100cm: 16.10.2017 00:00:00 - 22.10.2017 00:00:00 (BST)Valley, United Kingdom (3302): wind speed & gusts: 16.10.2017 00:00:00 - 22.10.2017 00:00:00 (BST)Valley, United Kingdom (3302): wind direction: 16.10.2017 00:00:00 - 22.10.2017 00:00:00 (BST)Valley, United Kingdom (3302): reduced air pressure: 16.10.2017 00:00:00 - 22.10.2017 00:00:00 (BST)Valley, United Kingdom (3302): visibility: 16.10.2017 00:00:00 - 22.10.2017 00:00:00 (BST)Valley, United Kingdom (3302): sunshine duration: 16.10.2017 00:00:00 - 22.10.2017 00:00:00 (BST)Valley, United Kingdom (3302): precipitation: 16.10.2017 00:00:00 - 22.10.2017 00:00:00 (BST)
Date & Time tt [°C] td [°C] tt -20cm [°C] tt -100cm [°C] ff [km/h] ff [kn] fx [km/h] fx [kn] dd ppp [hPa] vv [km] sd [min] rr [mm]
22.10.2017 00:00:00 11,1 6,9 - - 48 26 78 42 W 1003,4 17 0 -
21.10.2017 23:00:00 11,1 8,2 - - 48 26 72 39 W 1002,3 10 0 0,0
21.10.2017 22:00:00 11,8 7,1 - - 48 26 72 39 WNW 1000,6 10 0 0,0
21.10.2017 21:00:00 12,1 10,3 - - 48 26 74 40 W 998,4 7 0 -
21.10.2017 20:00:00 12,9 10,2 - - 41 22 61 33 W 996,9 23 0 0,0
21.10.2017 19:00:00 12,9 10,4 - - 42 23 68 37 W 995,2 10 0 0,0
21.10.2017 18:00:00 13,2 10,0 - - 50 27 70 38 W 993,4 10 0 0,0
21.10.2017 17:00:00 13,8 10,4 - - 52 28 76 41 W 991,4 10 18 0,0
21.10.2017 16:00:00 13,9 10,6 - - 52 28 81 44 W 989,4 10 0 0,4
21.10.2017 15:00:00 12,7 11,9 - - 61 33 94 51 WSW 986,6 3,1 0 2,6
21.10.2017 14:00:00 12,4 12,3 - - 72 39 106 57 SW 983,6 1,6 0 2,2
21.10.2017 13:00:00 12,9 12,1 - - 78 42 102 55 SSW 982,4 3,6 0 2,0
21.10.2017 12:00:00 12,0 11,2 - - 78 42 98 53 S 984,0 2,8 0 0,8
21.10.2017 11:00:00 12,1 11,6 - - 68 37 94 51 S 985,2 3,0 0 0,0
21.10.2017 10:00:00 12,8 10,9 13,4 13,9 67 36 89 48 S 986,0 4,0 0 0,0
21.10.2017 09:00:00 12,5 11,7 - - 63 34 87 47 S 986,2 7 0 0,4
21.10.2017 08:00:00 11,6 10,5 - - 67 36 96 52 S 986,9 2,4 0 0,6
21.10.2017 07:00:00 12,9 10,3 - - 63 34 85 46 S 987,9 7 0 -
21.10.2017 06:00:00 12,1 11,2 - - 57 31 83 45 S 988,6 5 0 -
21.10.2017 05:00:00 13,0 10,1 - - 63 34 85 46 S 989,4 4,7 0 -
21.10.2017 04:00:00 13,6 10,1 - - 54 29 72 39 S 991,1 9 0 -
21.10.2017 03:00:00 13,8 10,3 - - 57 31 81 44 S 991,8 8 0 -
21.10.2017 02:00:00 11,8 10,6 - - 55 30 74 40 S 993,1 4,5 0 -
21.10.2017 01:00:00 14,1 12,3 - - 48 26 63 34 S 993,6 8 - -
21.10.2017 00:00:00 14,2 12,6 - - 44 24 76 41 S 994,3 10 0 -
20.10.2017 23:00:00 14,3 12,2 - - 59 32 80 43 SSE 994,3 10 0 -
20.10.2017 22:00:00 13,5 11,7 - - 57 31 74 40 SSE 995,1 9 0 -
20.10.2017 21:00:00 12,7 11,3 - - 54 29 72 39 SSE 996,4 9 0 -
20.10.2017 20:00:00 12,5 9,9 - - 44 24 63 34 SSE 997,9 10 0 1,4
20.10.2017 19:00:00 12,4 8,1 - - 39 21 55 30 SE 999,4 10 0 0,0
20.10.2017 18:00:00 12,7 7,8 - - 41 22 55 30 SSE 1001,2 10 0 0,0
20.10.2017 17:00:00 12,3 6,7 - - 41 22 52 28 S 1002,2 10 0 0,0
20.10.2017 16:00:00 11,8 6,5 - - 44 24 54 29 S 1003,4 10 0 0,0
20.10.2017 15:00:00 11,9 7,1 - - 37 20 46 25 S 1003,7 10 0 0,0
20.10.2017 14:00:00 12,2 8,4 - - 34 18 - - SSW 1004,3 10 0 0,0
20.10.2017 13:00:00 12,2 8,3 - - 16 9 - - SW 1004,2 10 0 0,0
20.10.2017 12:00:00 12,0 9,2 - - 16 9 - - WSW 1004,5 10 0 0,0
20.10.2017 11:00:00 11,5 9,0 - - 22 12 - - W 1004,2 10 0 0,0
20.10.2017 10:00:00 11,5 9,2 13,7 13,9 18 10 - - WNW 1003,5 10 0 0,0
20.10.2017 09:00:00 11,4 9,3 - - 24 13 - - WNW 1002,3 10 0 0,0
20.10.2017 08:00:00 11,5 9,9 - - 28 15 - - WNW 1000,9 10 0 0,0
20.10.2017 07:00:00 11,7 10,7 - - 28 15 48 26 WNW 999,5 10 0 0,0
20.10.2017 06:00:00 12,2 11,3 - - 31 17 54 29 WNW 998,5 10 0 0,4
20.10.2017 05:00:00 13,4 12,6 - - 28 15 - - WNW 996,7 10 0 0,0
20.10.2017 04:00:00 12,9 12,2 - - 9 5 - - W 995,4 10 0 0,0
20.10.2017 03:00:00 13,3 12,5 - - 5 3 - - NW 994,3 10 0 0,0
20.10.2017 02:00:00 13,4 11,8 - - 13 7 - - WNW 993,9 10 0 0,0
20.10.2017 01:00:00 13,3 12,2 - - 11 6 - - WNW 993,3 10 - 0,0
20.10.2017 00:00:00 12,9 11,7 - - 4 2 - - NNW 992,8 10 0 0,0
19.10.2017 23:00:00 14,0 11,3 - - 8 4 - - SSE 992,5 10 0 0,0
19.10.2017 22:00:00 13,3 11,7 - - 15 8 - - E 992,0 10 0 0,4
19.10.2017 21:00:00 13,5 11,7 - - 15 8 - - E 992,1 10 0 0,0
19.10.2017 20:00:00 12,8 11,7 - - 13 7 - - ENE 992,6 10 0 0,8
19.10.2017 19:00:00 13,9 10,9 - - 16 9 - - E 993,0 10 0 0,0
19.10.2017 18:00:00 14,4 10,6 - - 16 9 - - E 993,6 10 0 0,2
19.10.2017 17:00:00 15,0 11,5 - - 13 7 - - E 994,5 10 0 0,0
19.10.2017 16:00:00 15,9 10,8 - - 16 9 - - ESE 995,4 10 0 0,0
19.10.2017 15:00:00 16,1 10,5 - - 24 13 - - SE 996,5 10 0 0,0
19.10.2017 14:00:00 15,7 9,9 - - 24 13 - - SE 997,3 10 0 0,0
19.10.2017 13:00:00 15,4 9,9 - - 24 13 - - SE 998,7 10 0 0,0
19.10.2017 12:00:00 15,0 10,2 - - 29 16 - - SE 999,7 10 0 0,0
19.10.2017 11:00:00 14,8 10,5 - - 29 16 - - SSE 1000,5 10 0 0,0
19.10.2017 10:00:00 14,6 10,8 13,5 14,0 34 18 50 27 SSE 1001,1 10 0 0,0
19.10.2017 09:00:00 14,3 11,2 - - 39 21 50 27 SSE 1001,5 10 0 0,0
19.10.2017 08:00:00 14,2 11,6 - - 37 20 48 26 SSE 1001,6 10 0 0,0
19.10.2017 07:00:00 13,8 11,7 - - 35 19 52 28 SSE 1001,8 10 0 0,0
19.10.2017 06:00:00 13,9 12,0 - - 34 18 50 27 SSE 1002,6 10 0 0,0
19.10.2017 05:00:00 13,9 12,1 - - 35 19 - - S 1003,2 10 0 0,0
19.10.2017 04:00:00 13,0 12,1 - - 31 17 52 28 SSE 1003,9 10 0 0,0
19.10.2017 03:00:00 13,5 12,0 - - 41 22 52 28 S 1005,0 10 0 0,0
19.10.2017 02:00:00 14,0 11,6 - - 39 21 50 27 SSE 1005,5 7 0 0,0
19.10.2017 01:00:00 14,1 11,3 - - 31 17 - - SSE 1005,6 5 - 0,0
19.10.2017 00:00:00 14,0 10,9 - - 24 13 - - SSE 1005,7 5 0 0,0
18.10.2017 23:00:00 13,8 10,9 - - 28 15 - - SSE 1006,2 5 0 0,0
18.10.2017 22:00:00 12,9 10,4 - - 18 10 - - SE 1007,0 5 0 0,0
18.10.2017 21:00:00 12,8 10,9 - - 21 11 - - SSE 1007,4 10 0 0,0
18.10.2017 20:00:00 13,1 10,6 - - 22 12 - - SE 1007,2 10 0 0,0
18.10.2017 19:00:00 12,8 11,1 - - 11 6 - - ESE 1007,9 10 0 0,0
18.10.2017 18:00:00 12,6 11,3 - - 5 3 - - SSE 1008,3 10 0 0,0
18.10.2017 17:00:00 13,5 8,9 - - 5 3 - - SSW 1008,5 10 0 0,0
18.10.2017 16:00:00 13,8 8,3 - - 8 4 - - SSE 1008,8 10 0 0,0
18.10.2017 15:00:00 14,0 7,8 - - 8 4 - - SW 1009,5 10 12 0,0
18.10.2017 14:00:00 15,2 6,8 - - 5 3 - - SSE 1009,7 10 48 0,0
18.10.2017 13:00:00 15,0 5,5 - - 8 4 - - E 1010,2 10 42 0,0
18.10.2017 12:00:00 13,6 4,7 - - 8 4 - - ENE 1010,8 10 60 0,0
18.10.2017 11:00:00 12,6 6,1 - - 9 5 - - E 1011,3 10 60 0,0
18.10.2017 10:00:00 10,1 7,1 12,9 14,0 9 5 - - ENE 1011,9 10 60 0,0
18.10.2017 09:00:00 7,1 5,1 - - 9 5 - - ENE 1012,5 10 30 0,0
18.10.2017 08:00:00 6,1 4,5 - - 9 5 - - ENE 1012,5 10 0 0,0
18.10.2017 07:00:00 6,3 4,9 - - 8 4 - - ENE 1012,7 10 0 0,0
18.10.2017 06:00:00 6,8 5,3 - - 8 4 - - ENE 1013,0 10 0 0,0
18.10.2017 05:00:00 6,8 5,3 - - 11 6 - - E 1013,2 10 0 0,0
18.10.2017 04:00:00 7,4 6,0 - - 9 5 - - E 1013,7 10 0 0,0
18.10.2017 03:00:00 8,7 7,1 - - 11 6 - - ESE 1014,3 10 0 0,0
18.10.2017 02:00:00 10,4 8,2 - - 5 3 - - NE 1014,8 10 0 0,0
18.10.2017 01:00:00 9,5 8,0 - - 9 5 - - E 1015,1 10 - 0,0
18.10.2017 00:00:00 9,6 7,7 - - 9 5 - - E 1015,5 10 0 0,0
17.10.2017 23:00:00 9,4 6,7 - - 8 4 - - E 1015,8 10 0 0,0
17.10.2017 22:00:00 10,4 6,7 - - 4 2 - - WSW 1015,7 10 0 0,0
17.10.2017 21:00:00 11,1 7,0 - - 9 5 - - WSW 1015,5 10 0 0,0
17.10.2017 20:00:00 12,3 7,5 - - 9 5 - - WSW 1015,9 10 0 0,0
17.10.2017 19:00:00 12,2 6,9 - - 13 7 - - WSW 1015,9 10 0 0,0
17.10.2017 18:00:00 12,5 6,5 - - 13 7 - - WSW 1016,0 10 0 0,0
17.10.2017 17:00:00 13,6 7,4 - - 24 13 - - SW 1016,1 10 6 0,0
17.10.2017 16:00:00 13,9 6,6 - - 29 16 - - SW 1016,2 10 36 0,0
17.10.2017 15:00:00 13,8 7,1 - - 29 16 - - SW 1016,6 10 42 0,0
17.10.2017 14:00:00 13,9 7,9 - - 34 18 46 25 SW 1016,7 10 60 0,0
17.10.2017 13:00:00 14,0 7,9 - - 35 19 48 26 SW 1016,9 10 60 0,0
17.10.2017 12:00:00 13,4 7,7 - - 37 20 52 28 WSW 1016,6 10 60 0,0
17.10.2017 11:00:00 12,9 8,1 - - 42 23 54 29 SW 1016,0 10 60 0,0
17.10.2017 10:00:00 12,3 7,4 13,9 14,0 41 22 55 30 WSW 1015,7 10 42 0,0
17.10.2017 09:00:00 11,9 7,6 - - 44 24 61 33 SW 1014,9 10 18 0,0
17.10.2017 08:00:00 11,9 7,8 - - 48 26 67 36 SW 1013,9 10 0 0,0
17.10.2017 07:00:00 11,8 6,7 - - 54 29 72 39 SW 1013,3 10 0 0,0
17.10.2017 06:00:00 12,2 7,8 - - 54 29 78 42 SW 1012,5 10 0 0,0
17.10.2017 05:00:00 12,6 8,0 - - 55 30 74 40 SW 1012,2 10 0 0,0
17.10.2017 04:00:00 12,7 7,6 - - 55 30 80 43 SW 1012,0 10 0 0,0
17.10.2017 03:00:00 12,9 8,0 - - 61 33 85 46 SW 1011,0 10 0 0,0
17.10.2017 02:00:00 13,3 7,8 - - 65 35 89 48 SW 1010,2 10 0 0,0
17.10.2017 01:00:00 13,7 9,0 - - 68 37 94 51 SSW 1008,9 9 - 0,0
17.10.2017 00:00:00 13,7 9,3 - - 74 40 104 56 SSW 1007,1 5 0 0,0
16.10.2017 23:00:00 14,0 10,1 - - 81 44 111 60 SSW 1005,6 4,9 0 0,0
16.10.2017 22:00:00 13,9 9,9 - - 81 44 117 63 SSW 1004,3 3,8 0 0,0
16.10.2017 21:00:00 13,7 10,0 - - 83 45 115 62 SSW 1002,6 3,3 0 0,0
16.10.2017 20:00:00 13,2 10,6 - - 80 43 117 63 S 1002,4 3,1 0 0,0
16.10.2017 19:00:00 13,3 10,9 - - 83 45 124 67 S 1001,3 3,3 0 0,0
16.10.2017 18:00:00 14,1 9,9 - - 94 51 124 67 S 999,7 4,7 0 0,0
16.10.2017 17:00:00 14,4 9,9 - - 87 47 128 69 S 1000,0 6 0 0,0
16.10.2017 16:00:00 15,0 8,4 - - 91 49 130 70 S 1000,7 6 0 0,0
16.10.2017 15:00:00 16,2 9,4 - - 76 41 100 54 S 1001,0 8 12 0,0
16.10.2017 14:00:00 16,5 9,4 - - 70 38 96 52 S 1002,2 10 18 0,0
16.10.2017 13:00:00 17,2 11,3 - - 65 35 87 47 S 1003,3 8 54 0,0
16.10.2017 12:00:00 18,3 13,0 - - 55 30 78 42 S 1003,4 10 30 0,0
16.10.2017 11:00:00 19,0 13,7 - - 44 24 72 39 S 1004,1 10 0 0,0
16.10.2017 10:00:00 20,2 12,1 14,7 14,0 39 21 48 26 SSE 1004,0 10 0 0,0
16.10.2017 09:00:00 15,2 13,2 - - 22 12 - - ENE 1004,6 10 0 0,6
16.10.2017 08:00:00 14,8 13,1 - - 11 6 - - N 1007,1 6 0 0,4
16.10.2017 07:00:00 14,1 13,3 - - 13 7 - - NNW 1008,7 10 0 0,2
16.10.2017 06:00:00 14,1 13,2 - - 9 5 - - NE 1009,2 8 0 0,0
16.10.2017 05:00:00 14,4 13,5 - - 11 6 - - ESE 1010,1 8 0 0,0
16.10.2017 04:00:00 14,6 13,5 - - 18 10 - - SE 1011,2 7 0 0,0
16.10.2017 03:00:00 14,9 13,7 - - 15 8 - - SSE 1012,0 8 0 0,0
16.10.2017 02:00:00 15,0 13,7 - - 16 9 - - SSE 1012,6 8 0 0,0
16.10.2017 01:00:00 14,8 13,8 - - 15 8 - - SSE 1013,1 7 - 0,0
16.10.2017 00:00:00 15,1 13,7 - - 15 8 - - S 1013,0 8 0 0,0

tt = temperature
td = dewpoint
tt -20cm = temperature -20cm
tt -100cm = temperature -100cm
ff = wind speed
fx = gusts
dd = wind direction
ppp = reduced air pressure
vv = visibility
sd = sunshine duration
rr = precipitation

Next stations